EW5800 Weather Reports


Display with metric or nautical units.
time (UTC)temp
F
wind
direction
speed
MPH
gust
MPH
rain 1hr
in
rain 24hr
in
rain mn
in
humidity
%
barometer
mb
20260508023050 62 251 0.0 0.0 0.00 0.00 0.00 68 1015.5
20260508021600 63 251 0.0 0.0 0.00 0.00 0.00 67 1015.4
20260508020047 63 250 0.0 0.0 0.00 0.00 0.00 66 1015.4
20260508014546 64 252 0.0 0.0 0.00 0.00 0.00 64 1015.5
20260508013044 64 233 0.0 1.0 0.00 0.00 0.00 63 1015.7
20260508011558 64 38 0.0 2.0 0.00 0.00 0.00 64 1015.7
20260508010043 65 202 0.0 4.0 0.00 0.00 0.00 63 1015.9
20260508004540 66 328 0.0 3.0 0.00 0.00 0.00 61 1016.0
20260508003038 67 301 0.0 1.0 0.00 0.00 0.00 59 1016.2
20260508001535 68 145 0.0 3.0 0.00 0.00 0.00 59 1016.2
20260508000034 68 283 0.0 3.0 0.00 0.00 0.00 58 1016.1
20260507234532 67 80 0.0 3.0 0.00 0.00 0.00 61 1016.2
20260507233036 67 13 0.0 2.0 0.00 0.00 0.00 60 1016.3
20260507231530 67 161 0.0 6.0 0.00 0.00 0.00 61 1016.4
20260507230029 68 101 0.0 0.0 0.00 0.00 0.00 59 1016.4
20260507224545 69 158 0.0 4.0 0.00 0.00 0.00 60 1016.5
20260507223024 68 135 0.0 3.0 0.00 0.00 0.00 60 1016.5
20260507221522 68 118 0.0 5.0 0.00 0.00 0.00 61 1016.7
20260507220130 69 360 0.0 2.0 0.00 0.00 0.00 59 1016.9
20260507214515 69 227 0.0 3.0 0.00 0.00 0.00 61 1017.2
20260507213013 67 153 0.0 1.0 0.00 0.00 0.00 62 1017.3
20260507211511 68 212 0.0 3.0 0.00 0.00 0.00 59 1017.5
20260507210026 69 165 0.0 3.0 0.00 0.00 0.00 58 1017.7
20260507204507 67 63 0.0 1.0 0.00 0.00 0.00 63 1017.8
20260507203008 67 317 0.0 1.0 0.00 0.00 0.00 62 1018.1
20260507201514 67 67 0.0 1.0 0.00 0.00 0.00 63 1018.3
20260507200002 69 92 0.0 3.0 0.00 0.00 0.00 60 1018.4
20260507194634 67 106 0.0 4.0 0.00 0.00 0.00 62 1018.5
20260507193057 67 323 0.0 3.0 0.00 0.00 0.00 63 1018.7
20260507191557 65 70 0.0 1.0 0.00 0.00 0.00 66 1018.7
20260507190056 66 304 0.0 1.0 0.00 0.00 0.00 63 1018.7
20260507184604 66 131 0.0 3.0 0.00 0.00 0.00 62 1018.8
20260507183054 65 260 0.0 3.0 0.00 0.00 0.00 63 1019.0
20260507181548 64 156 0.0 2.0 0.00 0.00 0.00 66 1019.1
20260507180043 61 152 0.0 3.0 0.00 0.00 0.00 72 1019.2
20260507174547 59 212 0.0 2.0 0.00 0.00 0.00 74 1019.4
20260507173038 58 145 0.0 1.0 0.00 0.00 0.00 77 1019.6
20260507171540 57 101 0.0 0.0 0.00 0.00 0.00 77 1019.6
20260507170038 57 101 0.0 0.0 0.00 0.00 0.00 78 1019.6
20260507164532 57 101 0.0 1.0 0.00 0.00 0.00 76 1019.6
20260507163031 57 227 0.0 0.0 0.00 0.00 0.00 76 1019.5
20260507161535 57 194 0.0 4.0 0.00 0.00 0.00 77 1019.6
20260507160028 57 229 0.0 2.0 0.00 0.00 0.00 77 1019.5
20260507154531 56 224 0.0 1.0 0.00 0.00 0.00 77 1019.6
20260507153036 55 65 0.0 3.0 0.00 0.00 0.00 80 1019.6
20260507151524 55 117 0.0 1.0 0.00 0.00 0.00 79 1019.8
20260507150024 55 68 0.0 0.0 0.00 0.00 0.00 80 1019.8
20260507144521 55 53 0.0 2.0 0.00 0.00 0.00 81 1019.7
20260507143025 54 148 0.0 0.0 0.00 0.00 0.00 83 1019.8
20260507141519 54 62 0.0 1.0 0.00 0.00 0.00 83 1019.6
20260507140019 54 49 0.0 6.0 0.00 0.00 0.00 83 1019.5
20260507134517 54 36 0.0 1.0 0.00 0.00 0.00 84 1019.6
20260507133019 54 94 0.0 1.0 0.00 0.00 0.00 84 1019.5
20260507131519 54 53 0.0 2.0 0.00 0.00 0.00 84 1019.5
20260507130024 54 27 0.0 2.0 0.00 0.00 0.00 84 1019.4
20260507124519 54 66 0.0 2.0 0.00 0.00 0.00 84 1019.4
20260507123012 54 44 1.0 5.0 0.00 0.00 0.00 84 1019.4
20260507121511 54 62 0.0 2.0 0.00 0.00 0.00 85 1019.4
20260507120019 54 67 0.0 1.0 0.00 0.00 0.00 85 1019.6
20260507114509 54 67 0.0 2.0 0.00 0.00 0.00 85 1019.6
20260507113009 54 69 0.0 0.0 0.00 0.00 0.00 85 1019.7
20260507111509 55 191 0.0 0.0 0.00 0.00 0.00 85 1019.6
20260507110008 55 68 0.0 0.0 0.00 0.00 0.00 84 1019.7
20260507104504 55 55 0.0 0.0 0.00 0.00 0.00 84 1019.6
20260507103002 55 62 0.0 3.0 0.00 0.00 0.00 84 1019.6
20260507101502 55 27 0.0 2.0 0.00 0.00 0.00 84 1019.4
20260507100001 55 53 0.0 5.0 0.00 0.00 0.00 83 1019.3
20260507094501 55 107 0.0 1.0 0.00 0.00 0.00 83 1019.5
20260507093108 55 68 0.0 2.0 0.00 0.00 0.00 83 1019.5
20260507091557 55 126 0.0 0.0 0.00 0.00 0.00 83 1019.5
20260507090056 55 69 0.0 2.0 0.00 0.00 0.00 82 1019.4
20260507084554 56 185 0.0 0.0 0.00 0.00 0.00 82 1019.4
20260507083051 56 41 0.0 3.0 0.00 0.00 0.00 82 1019.4
20260507081549 56 60 0.0 4.0 0.00 0.00 0.00 82 1019.2
20260507080051 56 60 0.0 0.0 0.00 0.00 0.00 82 1019.2
20260507074547 56 67 0.0 0.0 0.00 0.00 0.00 82 1019.1
20260507073046 56 148 0.0 0.0 0.00 0.00 0.00 81 1019.1
20260507073015 56 148 0.0 0.0 0.00 0.00 0.00 81 1019.1
20260507071602 56 43 0.0 1.0 0.00 0.00 0.00 81 1018.9
20260507070043 56 59 0.0 2.0 0.00 0.00 0.00 81 1018.8
20260507064535 56 54 0.0 4.0 0.00 0.00 0.00 81 1018.9
20260507063039 56 49 0.0 1.0 0.00 0.00 0.00 81 1018.8
20260507061600 56 61 0.0 1.0 0.00 0.00 0.00 81 1018.8
20260507060058 56 52 0.0 2.0 0.00 0.00 0.00 80 1018.8
20260507054658 56 62 0.0 4.0 0.00 0.00 0.00 80 1018.7
20260507053122 56 54 0.0 2.0 0.00 0.00 0.00 80 1018.7
20260507051601 57 57 0.0 1.0 0.00 0.00 0.00 79 1018.6
20260507050053 57 53 0.0 2.0 0.00 0.00 0.00 79 1018.6
20260507044556 57 194 0.0 0.0 0.00 0.00 0.00 79 1018.7
20260507043053 57 193 0.0 0.0 0.00 0.00 0.00 78 1018.6
20260507041552 57 200 0.0 0.0 0.00 0.00 0.00 78 1018.6
20260507040050 57 200 0.0 0.0 0.00 0.00 0.00 77 1018.5
20260507034550 57 36 0.0 0.0 0.00 0.00 0.00 77 1018.6
20260507033051 58 51 0.0 1.0 0.00 0.00 0.00 76 1018.6
20260507031553 58 124 0.0 0.0 0.00 0.00 0.00 75 1018.6
20260507030055 58 150 0.0 0.0 0.00 0.00 0.00 75 1018.6
20260507024550 58 126 0.0 1.0 0.00 0.00 0.00 75 1018.7